Погода в Кличеве

Погода в Кличеве : погода сейчас, прогноз погоды и архив. Всё, что Вы хотите узнать о погоде в Кличеве!

Хотите узнать прогноз погоды в Кличеве? Тогда Вам сюда: Погода в Кличеве

Поиск расширенной информации на нашем сайте:

Другие новости

Новости СМИ2

Главная страница сайта

Новости сайта

02.10.2013

Напоминаем, что на нашем новом сайте вы можете получить высокодетализированные прогнозы погоды по пунктам России, СНГ и мира (включающие важные для авиации метеовеличины, такие как направление и скорость ветра, видимость, явления погоды, количество и форма облачности, нижняя и верхняя граница облачности), а также ознакомиться с разнообразными материалами по авиационной метеорологии и подборкой полезных ссылок на эту тему.

Сайт Метеоцентр.Азия посвящён разработке технологий оптимизации авиаметеорологического обслуживания, включая проектирование и перспективное создание нескольких автоматизированных авиаметеорологических систем:
- система выпуска высокодетальных прогностических карт явлений погоды для нижнего воздушного пространства по России и ближнему зарубежью;
- система верификации прогнозов TAF (выпускаемых синоптиками официальных АМСГ РФ и ближнего зарубежья) и AUTOTAF (выпускаемых сайтом Метеоцентр.Азия) - выявление ошибок, онлайн-сопоставление с фактической погодой METAR, автоматическое внесение коррективов в прогнозы при резком отклонении фактической погоды от прогноза, подсчёт оправдываемости прогнозов по элементам и в целом;
- система обработки, анализа и отображения авиаметеорологической информации для применения провайдерами метеорологической информации.


Погода в Кличеве - сегодня

Время (UTC), дата Ветер
(°,м/с) 
Видим.   Явления Облачность Т
(°С)
Тd
(°С)
f(%) Тe
(°С)
Pmin
(гПа)
dP
(гПа)
Po
(мм)
O2
(г/м3)
Тmin Tmax R s Состояние
почвы
21 20.01.17 260 (З) 4000 м  дымка  9/9 800 м 
[Sc]
-0.3 -0.9 96 -3  1021.8  -1.3  752  303           
00 21.01.17 270 (З) 4000 м  дымка  9/9 800 м 
[Sc]
+0.5 -0.1 96 -2  1020.2  -1.5  751  302           
03 21.01.17 280 (З) 4000 м  слаб. дождь  10/10 400 м 
[Frnb]
+0.8 +0.3 96 -2  1019.3  -0.9  750  301      0.5  24   
06 21.01.17 300 (СЗ) 4000 м  слаб. дождь  10/10 400 м 
[Frnb]
+0.9 +0.6 98 -2  1019.9  0.6  750  301  -0.8    0.8  23  равномерный
мокрый или
старый снег
100% 
09 21.01.17 300 (СЗ) 4000 м  в посл. час ливневой снег{дождь}  9/9 720 м кучево-дожд. 
[Cb calv]
+1.2 +0.4 94 -2  1021.6  1.7  752  301           
12 21.01.17 310 (СЗ) 6{10}  4000 м  слаб. ливневой снег{дождь}  10/10 420 м кучево-дожд. 
[Cb cap]
+1.1 +0 92 -2  1021.6  752  302           
18 21.01.17 320 (СЗ) 10 км  {ливн. осадки}  ясно 
-2.6 -4.2 89 -5  1026.9  2.8  755  308    +1.7  0.5  21   
21 21.01.17 290 (З) 4000 м  дымка  ясно 
-5.6 -6.6 93 -7  1029.1  757  312           
00 22.01.17 310 (СЗ) 4000 м  дымка  8/8 840 м 
[Sc]
-3 -3.5 96 -5  1030.4  1.4  758  309           
03 22.01.17 280 (З) 4000 м  дымка  9/9 840 м 
[Sc]
-2.4 -3.5 92 -4  1030.4  0.1  758  308        21   
06 22.01.17 260 (З) 4000 м  дымка  9/9 840 м 
[Sc]
-2.7 -4 91 -5  1030.5  0.1  758  309  -8.4      21  равномерный
мокрый или
старый снег
100% 
09 22.01.17 240 (ЮЗ) 4000 м  дымка  9/9 900 м 
[Sc]
-2.8 -3.5 95 -5  1030.2  -0.3  758  309           
12 22.01.17 260 (З) 4000 м  дымка  9/9 900 м 
[Sc]
-1.4 -2.1 95 -5  1029.2  -0.9  757  307           
15 22.01.17 250 (З) 4000 м  дымка  9/9 900 м 
[Sc]
-0.1 -0.7 96 -3  1028.3  -0.8  756  305           
18 22.01.17 260 (З) 4000 м  дымка  9/9 900 м 
[Sc]
-0.1 -0.7 96 -3  1027.8  -0.5  756  305    +0    20   
21 22.01.17 260 (З) 4000 м  дымка  9/9 900 м 
[Sc]
-0.4 -1 96 -2  1027.5  -0.3  756  305           
00 23.01.17 270 (З) 4000 м  дымка  9/9 900 м 
[Sc]
-0.7 -1.3 96 -3  1026.9  -0.6  755  305           
03 23.01.17 240 (ЮЗ) 4000 м  дымка  9/9 840 м 
[Sc]
-1.2 -1.6 97 -3  1025.8  -1.1  755  306        20   
06 23.01.17 250 (З) 4000 м  дымка  9/9 840 м 
[Sc]
-1.7 -2 98 -4  1024.9  -1  754  306  -1.7      20  равномерный
мокрый или
старый снег
100% 
09 23.01.17 240 (ЮЗ) 4000 м  дымка  9/9 800 м 
[Sc]
-1.5 -1.9 97 -4  1023.9  -0.9  753  305           
12 23.01.17 260 (З) 4000 м  дымка  9/9 800 м 
[Sc]
-1.3 -1.7 97 -5  1021.8  -2.1  752  304           
15 23.01.17 250 (З) 4{10}  4000 м  дымка  9/9 800 м 
[Sc]
-1.6 -2.2 96 -4  1020.7  -1.1  751  305           
18 23.01.17 260 (З) 4000 м  дымка  9/9 800 м 
[Sc]
-1.5 -2.2 95 -4  1019.4  -1.2  750  304    -1.2    20   
21 23.01.17 250 (З) 4000 м  дымка  9/9 900 м 
[Sc]
-1.7 -2.4 95 -4  1018.5  -0.9  749  304           
00 24.01.17 270 (З) 1000 м  дымка  9/9 900 м 
[Sc]
-1.7 -2.7 93 -5  1017.5  -1  748  304           
Время (UTC), дата Ветер
(°,м/с) 
Видим.   Явления Облачность Т
(°С)
Тd
(°С)
f(%) Тe
(°С)
Pmin
(гПа)
dP
(гПа)
Po
(мм)
O2
(г/м3)
Тmin Tmax R s Состояние
почвы

Для получения пояснительной информации подведите курсор к названию столбца.

ПОГОДА в Кличеве - архив

Всё, что Вы хотите узнать о погоде в Кличеве - удобно и подробно!

Выберите нужную дату (начиная с 1 января 2015* года) и нажмите кнопку "Найти".
Будут отображены архивные сводки погоды по пункту Кличев, начиная с указанной даты.


Отображать данные в формате CSV (для использования в таблицах Excel)


Внимание! Наш архив погоды предназначен исключительно для личного некоммерческого использования в познавательных целях. Если Вам необходимы официальные справки о состоянии погоды (для производственных, юридических, коммерческих и т.п. целей), обращайтесь в органы Росгидромета.

*Примечание: данная дата относится к архиву по метеостанциям СССР (Россия, СНГ, Балтия).
Архив по метеостанциям Зарубежной Европы и Азии (кроме Китая) хранится 10 дней, по другим регионам земного шара (Китай, Африка, Америка, Австралия, Океания) - 1 день.

Кличев - район местоположения метеостанции


Название, широта, долгота, высота метеостанции:
Кличев 53.5°ш. 29.3°д. 155 м над ур. моря [Беларусь]

Дополнительная информация

В oтличие oт бoльшинства пoгoдных сайтoв мы публикуем пoдрoбную метеoинфoрмацию в детальнoм прoфессиoнальнoм фoрмате.

Характеристики температуры и влажнoсти вoздуха измеряются на высoте 2 м в тени вдали oт зданий и деревьев.
Скoрoсть ветра измеряется на высoте 10 м (на урoвне рoста челoвека скoрoсть ветра ниже в 1.5-2 раза). Если метеoстанция нахoдится в гoрoде или в лесу, тo скoрoсть ветра занижена на 2-4 м/с пo сравнению с oткрытым местoм. Скoрoсть ветра над акватoриями крупных рек и oзёр, а также на вершинах хoлмoв на 2-5 м/с выше, чем в oбычных услoвиях.
Атмoсфернoе давление в разных тoчках местнoсти мoжет значительнo oтличаться oт давления на метеoстанции, в зависимoсти oт услoвий рельефа (при пoдъёме на 10 м давление пoнижается примернo на 1 мм рт.ст.).